sat.trackr.live / text

‹ back to catalog

INMARSAT 3-F1

NORAD 23839 · 1996-020A

PAYLOAD ACTIVE UNKNOWN

§ Identity

Operator
Country
IM
Launch date
1996-04-03
Launch site
AFETR
Launch vehicle
Mass (kg)
RCS (m²)
1.18

Purposes: comms

External: N2YO · Heavens-Above · Gunter

§ Orbital elements

Epoch: 2026-05-25T03:55:30.619776Z

Period
1,440.23 min
Inclination
10.5546°
Eccentricity
0.0003533
Mean motion
0.99984353 rev/d
Perigee alt
35,852.4 km
Apogee alt
35,882.3 km
Semi-major
42,245.5 km
B*
0.0000e+0
RAAN
46.8450°
Arg perigee
16.5517°
Mean anomaly
167.1986°
Rev number
11,002

§ Raw data

INMARSAT 3-F11 23839U 96020A   26145.16354884 -.00000249  00000+0  00000+0 0  99932 23839  10.5546  46.8450 0003533  16.5517 167.1986  0.99984353110026

JSON: /api/v1/satellites/23839 · /tle

For live sub-satellite position, see the globe view (requires WebGL).

§ Visibility from observer

Set your observer location to see the next 7 days of passes ≥ 10°. The values pass through the URL so the page stays shareable.

No JS? Fill the form by hand. The geolocation button needs JavaScript.